| time (UTC) | temp F | wind direction | speed knots | gust knots | rain 1hr in | rain 24hr in | rain mn in | humidity % | barometer mb |
| 20260506134541 | 46 | 252 | 9.6 | 17.4 | 0.00 | 0.00 | 0.00 | 46 | 1012.5 |
| 20260506134029 | 46 | 249 | 7.0 | 17.4 | 0.00 | 0.00 | 0.00 | 47 | 1012.5 |
| 20260506133529 | 46 | 295 | 9.6 | 15.6 | 0.00 | 0.00 | 0.00 | 46 | 1012.4 |
| 20260506133040 | 46 | 264 | 7.8 | 18.2 | 0.00 | 0.00 | 0.00 | 46 | 1012.4 |
| 20260506132533 | 46 | 251 | 9.6 | 18.2 | 0.00 | 0.00 | 0.00 | 47 | 1012.4 |
| 20260506132032 | 46 | 262 | 10.4 | 17.4 | 0.00 | 0.00 | 0.00 | 46 | 1012.4 |
| 20260506131550 | 46 | 241 | 8.7 | 16.5 | 0.00 | 0.00 | 0.00 | 48 | 1012.3 |
| 20260506131030 | 46 | 272 | 8.7 | 17.4 | 0.00 | 0.00 | 0.00 | 48 | 1012.3 |
| 20260506130533 | 46 | 274 | 11.3 | 17.4 | 0.00 | 0.00 | 0.00 | 48 | 1012.3 |
| 20260506130059 | 46 | 261 | 7.0 | 18.2 | 0.00 | 0.00 | 0.00 | 49 | 1012.2 |
| 20260506125532 | 46 | 228 | 10.4 | 18.2 | 0.00 | 0.00 | 0.00 | 47 | 1012.3 |
| 20260506125036 | 47 | 250 | 7.8 | 14.8 | 0.00 | 0.00 | 0.00 | 46 | 1012.3 |
| 20260506124551 | 46 | 249 | 7.0 | 14.8 | 0.00 | 0.00 | 0.00 | 49 | 1012.2 |
| 20260506124029 | 45 | 266 | 11.3 | 14.8 | 0.00 | 0.00 | 0.00 | 49 | 1012.1 |
| 20260506123529 | 46 | 220 | 7.8 | 18.2 | 0.00 | 0.00 | 0.00 | 47 | 1012.2 |
| 20260506123042 | 46 | 258 | 11.3 | 18.2 | 0.00 | 0.00 | 0.00 | 47 | 1012.2 |
| 20260506122530 | 46 | 254 | 8.7 | 16.5 | 0.00 | 0.00 | 0.00 | 48 | 1012.1 |
| 20260506122032 | 46 | 292 | 8.7 | 17.4 | 0.00 | 0.00 | 0.00 | 49 | 1012.1 |
| 20260506121537 | 47 | 245 | 7.0 | 17.4 | 0.00 | 0.00 | 0.00 | 49 | 1012.0 |
| 20260506121029 | 46 | 240 | 10.4 | 17.4 | 0.00 | 0.00 | 0.00 | 48 | 1012.0 |
| 20260506120534 | 46 | 304 | 10.4 | 17.4 | 0.00 | 0.00 | 0.00 | 50 | 1012.1 |
| 20260506120050 | 46 | 261 | 10.4 | 15.6 | 0.00 | 0.00 | 0.00 | 49 | 1012.1 |
| 20260506115529 | 46 | 241 | 8.7 | 18.2 | 0.00 | 0.00 | 0.00 | 47 | 1011.9 |
| 20260506115032 | 46 | 243 | 10.4 | 18.2 | 0.00 | 0.00 | 0.00 | 48 | 1011.9 |
| 20260506114542 | 46 | 261 | 9.6 | 17.4 | 0.00 | 0.00 | 0.00 | 45 | 1011.9 |
| 20260506114029 | 46 | 237 | 11.3 | 19.1 | 0.00 | 0.00 | 0.00 | 47 | 1011.8 |
| 20260506113533 | 46 | 253 | 11.3 | 19.1 | 0.00 | 0.00 | 0.00 | 47 | 1011.8 |
| 20260506113049 | 46 | 276 | 8.7 | 19.1 | 0.00 | 0.00 | 0.00 | 49 | 1011.8 |
| 20260506112530 | 46 | 240 | 11.3 | 19.1 | 0.00 | 0.00 | 0.00 | 47 | 1011.8 |
| 20260506112032 | 46 | 255 | 9.6 | 16.5 | 0.00 | 0.00 | 0.00 | 48 | 1011.7 |
| 20260506111537 | 46 | 258 | 9.6 | 18.2 | 0.00 | 0.00 | 0.00 | 46 | 1011.7 |
| 20260506111033 | 46 | 263 | 10.4 | 18.2 | 0.00 | 0.00 | 0.00 | 46 | 1011.7 |
| 20260506110531 | 46 | 247 | 6.1 | 16.5 | 0.00 | 0.00 | 0.00 | 49 | 1011.5 |
| 20260506110043 | 46 | 238 | 11.3 | 17.4 | 0.00 | 0.00 | 0.00 | 46 | 1011.5 |
| 20260506105529 | 47 | 240 | 7.0 | 17.4 | 0.00 | 0.00 | 0.00 | 46 | 1011.3 |
| 20260506105050 | 46 | 283 | 9.6 | 18.2 | 0.00 | 0.00 | 0.00 | 47 | 1011.3 |
| 20260506104551 | 46 | 244 | 11.3 | 18.2 | 0.00 | 0.00 | 0.00 | 45 | 1011.2 |
| 20260506104034 | 46 | 247 | 9.6 | 18.2 | 0.00 | 0.00 | 0.00 | 45 | 1011.4 |
| 20260506103534 | 46 | 191 | 8.7 | 18.2 | 0.00 | 0.00 | 0.00 | 45 | 1011.3 |
| 20260506103049 | 47 | 272 | 9.6 | 18.2 | 0.00 | 0.00 | 0.00 | 48 | 1011.2 |
| 20260506102534 | 46 | 225 | 10.4 | 18.2 | 0.00 | 0.00 | 0.00 | 47 | 1011.1 |
| 20260506102034 | 45 | 267 | 10.4 | 18.2 | 0.00 | 0.00 | 0.00 | 48 | 1011.1 |
| 20260506101549 | 45 | 228 | 12.2 | 20.0 | 0.00 | 0.00 | 0.00 | 44 | 1011.1 |
| 20260506101033 | 46 | 263 | 12.2 | 20.0 | 0.00 | 0.00 | 0.00 | 47 | 1011.0 |
| 20260506100534 | 46 | 269 | 9.6 | 19.1 | 0.00 | 0.00 | 0.00 | 47 | 1011.0 |
| 20260506100059 | 45 | 257 | 7.8 | 18.2 | 0.00 | 0.00 | 0.00 | 49 | 1010.9 |
| 20260506095533 | 46 | 259 | 12.2 | 19.1 | 0.00 | 0.00 | 0.00 | 48 | 1010.9 |
| 20260506095033 | 46 | 252 | 9.6 | 19.1 | 0.00 | 0.00 | 0.00 | 50 | 1010.9 |
| 20260506094544 | 45 | 255 | 11.3 | 17.4 | 0.00 | 0.00 | 0.00 | 47 | 1010.8 |
| 20260506094034 | 46 | 272 | 9.6 | 16.5 | 0.00 | 0.00 | 0.00 | 47 | 1010.8 |
| 20260506093533 | 45 | 253 | 10.4 | 18.2 | 0.00 | 0.00 | 0.00 | 47 | 1010.7 |
| 20260506093047 | 45 | 256 | 10.4 | 19.1 | 0.00 | 0.00 | 0.00 | 47 | 1010.7 |
| 20260506092534 | 45 | 258 | 13.0 | 19.1 | 0.00 | 0.00 | 0.00 | 48 | 1010.7 |
| 20260506092033 | 45 | 264 | 9.6 | 18.2 | 0.00 | 0.00 | 0.00 | 49 | 1010.4 |
| 20260506091542 | 45 | 239 | 9.6 | 18.2 | 0.00 | 0.00 | 0.00 | 50 | 1010.4 |
| 20260506091037 | 45 | 292 | 10.4 | 20.9 | 0.00 | 0.00 | 0.00 | 51 | 1010.4 |
| 20260506090533 | 45 | 266 | 9.6 | 20.9 | 0.00 | 0.00 | 0.00 | 50 | 1010.4 |
| 20260506090038 | 45 | 230 | 12.2 | 20.9 | 0.00 | 0.00 | 0.00 | 49 | 1010.4 |
| 20260506085533 | 45 | 259 | 10.4 | 18.2 | 0.00 | 0.00 | 0.00 | 50 | 1010.4 |
| 20260506085034 | 45 | 266 | 10.4 | 18.2 | 0.00 | 0.00 | 0.00 | 52 | 1010.4 |
| 20260506084559 | 44 | 243 | 9.6 | 18.2 | 0.00 | 0.00 | 0.00 | 51 | 1010.2 |
| 20260506084033 | 44 | 247 | 11.3 | 18.2 | 0.00 | 0.00 | 0.00 | 50 | 1010.2 |
| 20260506083533 | 45 | 270 | 8.7 | 17.4 | 0.00 | 0.00 | 0.00 | 52 | 1010.2 |
| 20260506083039 | 45 | 257 | 9.6 | 17.4 | 0.00 | 0.00 | 0.00 | 50 | 1010.2 |
| 20260506082534 | 45 | 280 | 10.4 | 17.4 | 0.00 | 0.00 | 0.00 | 52 | 1010.1 |
| 20260506082033 | 45 | 216 | 10.4 | 17.4 | 0.00 | 0.00 | 0.00 | 51 | 1010.1 |
| 20260506081547 | 45 | 276 | 8.7 | 18.2 | 0.00 | 0.00 | 0.00 | 53 | 1009.9 |
| 20260506081034 | 44 | 269 | 11.3 | 18.2 | 0.00 | 0.00 | 0.00 | 51 | 1009.9 |
| 20260506080534 | 45 | 256 | 8.7 | 15.6 | 0.00 | 0.00 | 0.00 | 51 | 1009.9 |
| 20260506073045 | 43 | 276 | 7.8 | 15.6 | 0.00 | 0.00 | 0.00 | 54 | 1009.5 |
| 20260506072530 | 44 | 278 | 7.8 | 14.8 | 0.00 | 0.00 | 0.00 | 57 | 1009.5 |
| 20260506072029 | 43 | 238 | 7.8 | 14.8 | 0.00 | 0.00 | 0.00 | 58 | 1009.5 |
| 20260506071545 | 43 | 254 | 8.7 | 16.5 | 0.00 | 0.00 | 0.00 | 55 | 1009.5 |
| 20260506071031 | 42 | 282 | 10.4 | 16.5 | 0.00 | 0.00 | 0.00 | 58 | 1009.4 |
| 20260506070532 | 41 | 261 | 9.6 | 16.5 | 0.00 | 0.00 | 0.00 | 60 | 1009.5 |
| 20260506062029 | 41 | 257 | 9.6 | 15.6 | 0.00 | 0.00 | 0.00 | 61 | 1009.1 |
| 20260506061539 | 41 | 297 | 7.8 | 17.4 | 0.00 | 0.00 | 0.00 | 64 | 1009.0 |
| 20260506061029 | 40 | 249 | 9.6 | 17.4 | 0.00 | 0.00 | 0.00 | 63 | 1008.9 |
| 20260506060532 | 40 | 278 | 10.4 | 17.4 | 0.00 | 0.00 | 0.00 | 64 | 1008.9 |
| 20260506051029 | 38 | 259 | 8.7 | 13.9 | 0.00 | 0.00 | 0.00 | 71 | 1008.5 |
| 20260506050530 | 38 | 288 | 8.7 | 13.9 | 0.00 | 0.00 | 0.00 | 72 | 1008.6 |
| 20260506045030 | 38 | 258 | 6.1 | 12.2 | 0.00 | 0.00 | 0.00 | 75 | 1008.5 |
| 20260506044622 | 37 | 266 | 5.2 | 12.2 | 0.00 | 0.00 | 0.00 | 75 | 1008.5 |
| 20260506044035 | 37 | 245 | 7.8 | 13.9 | 0.00 | 0.00 | 0.00 | 75 | 1008.3 |
| 20260506043533 | 37 | 261 | 5.2 | 13.9 | 0.00 | 0.00 | 0.00 | 76 | 1008.3 |
| 20260506043043 | 36 | 261 | 8.7 | 13.9 | 0.00 | 0.00 | 0.00 | 77 | 1008.2 |
| 20260506042533 | 36 | 259 | 4.3 | 8.7 | 0.00 | 0.00 | 0.00 | 78 | 1008.2 |
| 20260506042032 | 35 | 238 | 3.5 | 7.8 | 0.00 | 0.00 | 0.00 | 78 | 1008.2 |
| 20260506041559 | 35 | 238 | 3.5 | 8.7 | 0.00 | 0.00 | 0.00 | 79 | 1008.2 |
| 20260506041034 | 35 | 214 | 4.3 | 8.7 | 0.00 | 0.00 | 0.00 | 78 | 1008.2 |
| 20260506040536 | 34 | 236 | 4.3 | 8.7 | 0.00 | 0.00 | 0.00 | 79 | 1008.1 |
| 20260506040050 | 34 | 216 | 4.3 | 8.7 | 0.00 | 0.00 | 0.00 | 80 | 1008.1 |
| 20260506035535 | 33 | 242 | 4.3 | 8.7 | 0.00 | 0.00 | 0.00 | 81 | 1008.0 |
| 20260506035033 | 33 | 251 | 3.5 | 7.8 | 0.00 | 0.00 | 0.00 | 81 | 1007.9 |
| 20260506034605 | 33 | 240 | 3.5 | 7.8 | 0.00 | 0.00 | 0.00 | 82 | 1007.9 |
| 20260506034033 | 32 | 251 | 4.3 | 7.8 | 0.00 | 0.00 | 0.00 | 82 | 1007.9 |
| 20260506033533 | 32 | 253 | 3.5 | 7.8 | 0.00 | 0.00 | 0.00 | 82 | 1007.8 |
| 20260506033049 | 32 | 224 | 3.5 | 7.8 | 0.00 | 0.00 | 0.00 | 82 | 1007.7 |
| 20260506032533 | 31 | 237 | 3.5 | 7.0 | 0.00 | 0.00 | 0.00 | 83 | 1007.8 |
| 20260506032033 | 31 | 249 | 3.5 | 7.8 | 0.00 | 0.00 | 0.00 | 83 | 1007.7 |
| 20260506031542 | 31 | 238 | 3.5 | 8.7 | 0.00 | 0.00 | 0.00 | 83 | 1007.6 |
| 20260506031033 | 31 | 260 | 3.5 | 8.7 | 0.00 | 0.00 | 0.00 | 83 | 1007.5 |
| 20260506030534 | 31 | 260 | 3.5 | 7.0 | 0.00 | 0.00 | 0.00 | 83 | 1007.5 |
| 20260506030048 | 31 | 240 | 2.6 | 7.0 | 0.00 | 0.00 | 0.00 | 83 | 1007.4 |
| 20260506025534 | 31 | 252 | 3.5 | 7.8 | 0.00 | 0.00 | 0.00 | 83 | 1007.4 |
| 20260506025033 | 31 | 249 | 3.5 | 7.8 | 0.00 | 0.00 | 0.00 | 84 | 1007.4 |
| 20260506024542 | 31 | 236 | 3.5 | 7.8 | 0.00 | 0.00 | 0.00 | 84 | 1007.3 |
| 20260506024034 | 31 | 244 | 3.5 | 7.8 | 0.00 | 0.00 | 0.00 | 84 | 1007.2 |
| 20260506023534 | 31 | 221 | 2.6 | 8.7 | 0.00 | 0.00 | 0.00 | 85 | 1007.3 |
| 20260506023104 | 30 | 238 | 4.3 | 8.7 | 0.00 | 0.00 | 0.00 | 85 | 1007.2 |
| 20260506022533 | 30 | 234 | 3.5 | 7.8 | 0.00 | 0.00 | 0.00 | 85 | 1007.2 |
| 20260506022033 | 30 | 232 | 3.5 | 7.0 | 0.00 | 0.00 | 0.00 | 84 | 1007.2 |
| 20260506021546 | 30 | 253 | 1.7 | 4.3 | 0.00 | 0.00 | 0.00 | 84 | 1007.2 |
| 20260506021034 | 30 | 247 | 1.7 | 5.2 | 0.00 | 0.00 | 0.00 | 84 | 1007.1 |
| 20260506020535 | 30 | 235 | 2.6 | 7.0 | 0.00 | 0.00 | 0.00 | 84 | 1007.1 |
| 20260506020046 | 30 | 246 | 2.6 | 7.0 | 0.00 | 0.00 | 0.00 | 84 | 1007.0 |
| 20260506015535 | 30 | 249 | 2.6 | 7.0 | 0.00 | 0.01 | 0.00 | 84 | 1007.0 |
| 20260506015036 | 30 | 253 | 1.7 | 7.0 | 0.00 | 0.01 | 0.00 | 84 | 1007.0 |
| 20260506014540 | 30 | 239 | 2.6 | 7.0 | 0.00 | 0.01 | 0.00 | 84 | 1007.0 |
| 20260506014036 | 31 | 245 | 1.7 | 6.1 | 0.00 | 0.01 | 0.00 | 84 | 1006.9 |
| 20260506013534 | 31 | 234 | 2.6 | 6.1 | 0.00 | 0.01 | 0.00 | 84 | 1006.8 |
| 20260506013041 | 31 | 211 | 2.6 | 6.1 | 0.00 | 0.01 | 0.00 | 83 | 1006.7 |
| 20260506012529 | 31 | 251 | 1.7 | 7.0 | 0.00 | 0.01 | 0.00 | 83 | 1006.7 |
| 20260506012030 | 31 | 249 | 2.6 | 7.0 | 0.00 | 0.01 | 0.00 | 83 | 1006.7 |
| 20260506011537 | 31 | 247 | 2.6 | 7.0 | 0.00 | 0.01 | 0.00 | 83 | 1006.7 |
| 20260506011029 | 31 | 230 | 3.5 | 6.1 | 0.00 | 0.01 | 0.00 | 83 | 1006.7 |
| 20260506010533 | 31 | 233 | 2.6 | 6.1 | 0.00 | 0.01 | 0.00 | 83 | 1006.6 |
| 20260506010051 | 31 | 225 | 2.6 | 6.1 | 0.00 | 0.01 | 0.00 | 83 | 1006.6 |
| 20260506005533 | 31 | 231 | 1.7 | 6.1 | 0.00 | 0.01 | 0.00 | 82 | 1006.5 |
| 20260506005029 | 32 | 228 | 2.6 | 6.1 | 0.00 | 0.01 | 0.00 | 83 | 1006.5 |
| 20260506004600 | 32 | 242 | 2.6 | 7.0 | 0.00 | 0.01 | 0.00 | 83 | 1006.4 |
| 20260506004030 | 32 | 250 | 2.6 | 7.0 | 0.00 | 0.01 | 0.00 | 83 | 1006.4 |
| 20260506003535 | 32 | 242 | 2.6 | 7.0 | 0.00 | 0.01 | 0.00 | 83 | 1006.4 |
| 20260506003051 | 32 | 259 | 2.6 | 7.0 | 0.00 | 0.01 | 0.00 | 83 | 1006.4 |
| 20260506002529 | 32 | 236 | 2.6 | 7.0 | 0.00 | 0.01 | 0.00 | 82 | 1006.2 |
| 20260506002030 | 32 | 240 | 3.5 | 7.0 | 0.00 | 0.01 | 0.00 | 82 | 1006.2 |
| 20260506001541 | 32 | 249 | 2.6 | 7.0 | 0.00 | 0.01 | 0.00 | 82 | 1006.2 |
| 20260506001030 | 32 | 243 | 3.5 | 6.1 | 0.00 | 0.01 | 0.00 | 83 | 1006.1 |
| 20260506000530 | 32 | 244 | 3.5 | 6.1 | 0.00 | 0.01 | 0.00 | 82 | 1006.1 |
| 20260506000040 | 32 | 252 | 2.6 | 7.0 | 0.00 | 0.01 | 0.00 | 82 | 1006.0 |
| 20260505235530 | 32 | 242 | 3.5 | 7.0 | 0.00 | 0.01 | 0.00 | 82 | 1006.0 |
| 20260505235033 | 32 | 243 | 2.6 | 6.1 | 0.00 | 0.01 | 0.00 | 82 | 1006.0 |
| 20260505234558 | 33 | 249 | 1.7 | 6.1 | 0.00 | 0.01 | 0.00 | 81 | 1005.9 |
| 20260505234032 | 33 | 243 | 1.7 | 4.3 | 0.00 | 0.01 | 0.00 | 81 | 1005.9 |
| 20260505233532 | 33 | 247 | 1.7 | 6.1 | 0.00 | 0.01 | 0.00 | 81 | 1005.8 |
| 20260505233041 | 33 | 232 | 2.6 | 7.0 | 0.00 | 0.01 | 0.00 | 81 | 1005.8 |
| 20260505232530 | 33 | 260 | 2.6 | 7.8 | 0.00 | 0.01 | 0.00 | 82 | 1005.8 |
| 20260505232032 | 33 | 244 | 3.5 | 7.8 | 0.00 | 0.01 | 0.00 | 82 | 1005.6 |
| 20260505231541 | 33 | 222 | 3.5 | 7.8 | 0.00 | 0.01 | 0.00 | 82 | 1005.7 |
| 20260505231030 | 33 | 243 | 3.5 | 7.8 | 0.00 | 0.01 | 0.00 | 82 | 1005.7 |
| 20260505230530 | 33 | 249 | 4.3 | 9.6 | 0.00 | 0.01 | 0.00 | 82 | 1005.7 |
| 20260505230043 | 33 | 224 | 3.5 | 9.6 | 0.00 | 0.01 | 0.00 | 82 | 1005.6 |
| 20260505225530 | 33 | 227 | 6.1 | 9.6 | 0.00 | 0.01 | 0.00 | 83 | 1005.6 |
| 20260505225036 | 34 | 227 | 3.5 | 7.8 | 0.00 | 0.01 | 0.00 | 82 | 1005.6 |
| 20260505224541 | 34 | 232 | 4.3 | 8.7 | 0.00 | 0.01 | 0.00 | 82 | 1005.6 |
| 20260505224033 | 34 | 221 | 4.3 | 8.7 | 0.00 | 0.01 | 0.00 | 82 | 1005.6 |
| 20260505223530 | 34 | 232 | 3.5 | 7.8 | 0.00 | 0.01 | 0.00 | 82 | 1005.6 |
| 20260505223044 | 34 | 229 | 2.6 | 7.8 | 0.00 | 0.01 | 0.00 | 82 | 1005.6 |
| 20260505222530 | 34 | 241 | 3.5 | 7.0 | 0.00 | 0.01 | 0.00 | 82 | 1005.6 |
| 20260505222032 | 34 | 237 | 4.3 | 7.0 | 0.00 | 0.01 | 0.00 | 81 | 1005.5 |
| 20260505221540 | 34 | 232 | 2.6 | 6.1 | 0.00 | 0.01 | 0.00 | 81 | 1005.5 |
| 20260505221029 | 34 | 229 | 3.5 | 6.1 | 0.00 | 0.01 | 0.00 | 81 | 1005.5 |
| 20260505220531 | 34 | 250 | 1.7 | 6.1 | 0.00 | 0.01 | 0.00 | 81 | 1005.5 |
| 20260505220055 | 34 | 254 | 2.6 | 7.0 | 0.00 | 0.01 | 0.00 | 81 | 1005.5 |
| 20260505215531 | 34 | 254 | 3.5 | 7.0 | 0.00 | 0.01 | 0.00 | 81 | 1005.6 |
| 20260505215031 | 34 | 255 | 2.6 | 7.0 | 0.00 | 0.01 | 0.00 | 81 | 1005.5 |
| 20260505214540 | 34 | 220 | 2.6 | 8.7 | 0.00 | 0.01 | 0.00 | 81 | 1005.5 |
| 20260505214030 | 34 | 233 | 4.3 | 8.7 | 0.00 | 0.01 | 0.00 | 81 | 1005.5 |
| 20260505213530 | 34 | 234 | 3.5 | 7.8 | 0.00 | 0.01 | 0.00 | 80 | 1005.5 |
| 20260505213046 | 34 | 253 | 5.2 | 11.3 | 0.00 | 0.01 | 0.00 | 80 | 1005.4 |
| 20260505212533 | 34 | 205 | 5.2 | 11.3 | 0.00 | 0.01 | 0.00 | 80 | 1005.4 |
| 20260505212031 | 34 | 228 | 4.3 | 8.7 | 0.00 | 0.01 | 0.00 | 80 | 1005.4 |
| 20260505211548 | 34 | 232 | 3.5 | 8.7 | 0.00 | 0.01 | 0.00 | 79 | 1005.3 |
| 20260505211033 | 35 | 228 | 4.3 | 7.8 | 0.00 | 0.01 | 0.00 | 79 | 1005.3 |
| 20260505210532 | 35 | 243 | 4.3 | 8.7 | 0.00 | 0.01 | 0.00 | 79 | 1005.4 |
| 20260505210041 | 35 | 220 | 4.3 | 8.7 | 0.00 | 0.01 | 0.00 | 79 | 1005.3 |
| 20260505205533 | 35 | 209 | 5.2 | 9.6 | 0.00 | 0.01 | 0.01 | 79 | 1005.3 |
| 20260505205034 | 35 | 253 | 3.5 | 9.6 | 0.00 | 0.01 | 0.01 | 78 | 1005.3 |
| 20260505204550 | 35 | 245 | 5.2 | 9.6 | 0.00 | 0.01 | 0.01 | 78 | 1005.2 |
| 20260505204030 | 35 | 207 | 3.5 | 10.4 | 0.00 | 0.01 | 0.01 | 78 | 1005.3 |
| 20260505203532 | 35 | 218 | 6.1 | 10.4 | 0.00 | 0.01 | 0.01 | 78 | 1005.3 |
| 20260505203039 | 35 | 226 | 5.2 | 8.7 | 0.00 | 0.01 | 0.01 | 77 | 1005.3 |
| 20260505202530 | 35 | 209 | 3.5 | 7.0 | 0.00 | 0.01 | 0.01 | 77 | 1005.2 |
| 20260505202032 | 35 | 232 | 4.3 | 7.0 | 0.00 | 0.01 | 0.01 | 77 | 1005.1 |
| 20260505201544 | 35 | 212 | 4.3 | 7.0 | 0.00 | 0.01 | 0.01 | 77 | 1005.1 |
| 20260505201033 | 35 | 229 | 4.3 | 7.0 | 0.00 | 0.01 | 0.01 | 77 | 1005.2 |
| 20260505200532 | 35 | 222 | 4.3 | 7.0 | 0.00 | 0.01 | 0.01 | 76 | 1005.1 |
| 20260505200041 | 35 | 228 | 3.5 | 6.1 | 0.00 | 0.01 | 0.01 | 76 | 1005.2 |
| 20260505195532 | 36 | 215 | 2.6 | 6.1 | 0.00 | 0.01 | 0.01 | 75 | 1005.1 |
| 20260505195032 | 36 | 248 | 2.6 | 6.1 | 0.00 | 0.01 | 0.01 | 75 | 1005.1 |
| 20260505194545 | 36 | 225 | 2.6 | 4.3 | 0.00 | 0.01 | 0.01 | 74 | 1005.1 |
| 20260505194031 | 36 | 220 | 2.6 | 6.1 | 0.00 | 0.01 | 0.01 | 73 | 1005.0 |
| 20260505193530 | 36 | 230 | 2.6 | 7.8 | 0.00 | 0.01 | 0.01 | 73 | 1005.1 |
| 20260505193045 | 37 | 214 | 4.3 | 7.8 | 0.00 | 0.01 | 0.01 | 73 | 1005.0 |
| 20260505192531 | 37 | 217 | 3.5 | 7.8 | 0.00 | 0.01 | 0.01 | 72 | 1005.0 |
| 20260505192033 | 37 | 214 | 4.3 | 7.8 | 0.00 | 0.01 | 0.01 | 72 | 1005.0 |
| 20260505191551 | 37 | 230 | 4.3 | 7.8 | 0.00 | 0.01 | 0.01 | 73 | 1005.0 |
| 20260505191032 | 37 | 226 | 4.3 | 7.8 | 0.00 | 0.01 | 0.01 | 72 | 1005.0 |
| 20260505190529 | 37 | 225 | 4.3 | 6.1 | 0.00 | 0.01 | 0.01 | 71 | 1005.0 |
| 20260505190042 | 37 | 218 | 4.3 | 6.1 | 0.00 | 0.01 | 0.01 | 70 | 1004.9 |
| 20260505185530 | 38 | 227 | 2.6 | 8.7 | 0.00 | 0.01 | 0.01 | 70 | 1004.9 |
| 20260505185032 | 38 | 229 | 3.5 | 8.7 | 0.00 | 0.01 | 0.01 | 70 | 1004.9 |
| 20260505184543 | 38 | 226 | 3.5 | 8.7 | 0.00 | 0.01 | 0.01 | 70 | 1004.8 |
| 20260505184029 | 38 | 259 | 2.6 | 7.0 | 0.00 | 0.01 | 0.01 | 69 | 1005.0 |
| 20260505183529 | 38 | 229 | 3.5 | 7.0 | 0.00 | 0.01 | 0.01 | 69 | 1004.9 |
| 20260505183041 | 38 | 209 | 3.5 | 7.0 | 0.00 | 0.01 | 0.01 | 67 | 1004.8 |
| 20260505182529 | 39 | 227 | 2.6 | 7.0 | 0.00 | 0.01 | 0.01 | 66 | 1004.7 |
| 20260505182029 | 39 | 251 | 4.3 | 6.1 | 0.00 | 0.01 | 0.01 | 64 | 1004.8 |
| 20260505181540 | 40 | 255 | 3.5 | 8.7 | 0.00 | 0.01 | 0.01 | 63 | 1004.8 |
| 20260505181030 | 40 | 238 | 4.3 | 13.0 | 0.00 | 0.01 | 0.01 | 62 | 1004.8 |
| 20260505180533 | 41 | 234 | 6.1 | 13.0 | 0.00 | 0.01 | 0.01 | 61 | 1004.8 |
| 20260505180048 | 41 | 231 | 4.3 | 11.3 | 0.00 | 0.01 | 0.01 | 60 | 1004.7 |
| 20260505175532 | 41 | 257 | 5.2 | 11.3 | 0.00 | 0.03 | 0.01 | 59 | 1004.7 |
| 20260505175035 | 42 | 229 | 5.2 | 10.4 | 0.00 | 0.03 | 0.01 | 58 | 1004.7 |
| 20260505174605 | 42 | 236 | 6.1 | 11.3 | 0.00 | 0.03 | 0.01 | 57 | 1004.6 |
| 20260505174033 | 42 | 264 | 6.1 | 11.3 | 0.00 | 0.03 | 0.01 | 56 | 1004.6 |
| 20260505173534 | 42 | 245 | 5.2 | 10.4 | 0.00 | 0.03 | 0.01 | 56 | 1004.6 |
| 20260505173044 | 42 | 268 | 5.2 | 13.9 | 0.00 | 0.03 | 0.01 | 55 | 1004.5 |
| 20260505172532 | 43 | 226 | 6.1 | 13.9 | 0.00 | 0.03 | 0.01 | 54 | 1004.6 |
| 20260505172029 | 43 | 252 | 7.0 | 13.0 | 0.00 | 0.03 | 0.01 | 53 | 1004.6 |
| 20260505171540 | 43 | 255 | 7.0 | 13.9 | 0.00 | 0.03 | 0.01 | 52 | 1004.6 |
| 20260505171031 | 43 | 257 | 7.0 | 14.8 | 0.00 | 0.03 | 0.01 | 51 | 1004.6 |
| 20260505170530 | 44 | 243 | 8.7 | 14.8 | 0.00 | 0.03 | 0.01 | 51 | 1004.6 |
| 20260505170050 | 44 | 264 | 7.8 | 13.0 | 0.00 | 0.03 | 0.01 | 51 | 1004.5 |
| 20260505165531 | 44 | 241 | 6.1 | 13.0 | 0.00 | 0.03 | 0.01 | 51 | 1004.5 |
| 20260505165033 | 44 | 255 | 5.2 | 13.0 | 0.00 | 0.03 | 0.01 | 51 | 1004.5 |
| 20260505164543 | 44 | 261 | 7.8 | 13.0 | 0.00 | 0.03 | 0.01 | 50 | 1004.4 |
| 20260505164030 | 44 | 250 | 7.8 | 13.9 | 0.00 | 0.03 | 0.01 | 50 | 1004.4 |
| 20260505163533 | 45 | 242 | 7.0 | 13.9 | 0.00 | 0.03 | 0.01 | 49 | 1004.3 |
| 20260505163044 | 45 | 263 | 6.1 | 14.8 | 0.00 | 0.03 | 0.01 | 50 | 1004.4 |
| 20260505162529 | 45 | 241 | 7.8 | 14.8 | 0.00 | 0.03 | 0.01 | 50 | 1004.3 |
| 20260505162030 | 46 | 261 | 7.8 | 14.8 | 0.00 | 0.03 | 0.01 | 48 | 1004.2 |
| 20260505161543 | 46 | 249 | 7.8 | 14.8 | 0.00 | 0.03 | 0.01 | 49 | 1004.2 |
| 20260505161032 | 46 | 273 | 6.1 | 13.9 | 0.00 | 0.03 | 0.01 | 48 | 1004.2 |
| 20260505160533 | 46 | 263 | 7.0 | 13.9 | 0.00 | 0.03 | 0.01 | 48 | 1004.2 |
| 20260505153053 | 46 | 274 | 10.4 | 14.8 | 0.00 | 0.03 | 0.01 | 44 | 1004.0 |
| 20260505152529 | 46 | 268 | 9.6 | 14.8 | 0.00 | 0.03 | 0.01 | 44 | 1003.9 |
| 20260505152030 | 47 | 291 | 7.8 | 17.4 | 0.00 | 0.03 | 0.01 | 44 | 1004.0 |
| 20260505151546 | 47 | 276 | 8.7 | 17.4 | 0.00 | 0.03 | 0.01 | 44 | 1003.9 |
| 20260505151029 | 47 | 280 | 9.6 | 17.4 | 0.00 | 0.03 | 0.01 | 44 | 1003.9 |
| 20260505150529 | 47 | 261 | 8.7 | 17.4 | 0.00 | 0.03 | 0.01 | 45 | 1003.8 |
| 20260505140530 | 47 | 292 | 10.4 | 20.0 | 0.00 | 0.03 | 0.01 | 42 | 1003.3 |